| time (UTC) | temp F | wind direction | speed MPH | gust MPH | rain 1hr in | rain 24hr in | rain mn in | humidity % | barometer mb |
| 20260507083356 | 50 | 241 | 3.0 | 6.0 | 0.00 | 0.00 | 0.00 | 90 | 1020.9 |
| 20260507080329 | 50 | 267 | 3.0 | 7.0 | 0.00 | 0.00 | 0.00 | 90 | 1020.9 |
| 20260507073334 | 51 | 271 | 4.0 | 9.0 | 0.00 | 0.00 | 0.00 | 91 | 1020.9 |
| 20260507070347 | 51 | 224 | 3.0 | 8.0 | 0.00 | 0.00 | 0.00 | 92 | 1020.7 |
| 20260507063334 | 51 | 252 | 3.0 | 5.0 | 0.00 | 0.00 | 0.00 | 93 | 1020.7 |
| 20260507060340 | 52 | 246 | 1.0 | 3.0 | 0.00 | 0.00 | 0.00 | 92 | 1020.9 |
| 20260507053348 | 52 | 276 | 1.0 | 5.0 | 0.00 | 0.00 | 0.00 | 90 | 1020.9 |
| 20260507050333 | 53 | 237 | 3.0 | 7.0 | 0.00 | 0.00 | 0.00 | 88 | 1020.9 |
| 20260507043334 | 53 | 204 | 3.0 | 8.0 | 0.00 | 0.00 | 0.00 | 89 | 1020.8 |
| 20260507040329 | 54 | 241 | 2.0 | 8.0 | 0.00 | 0.00 | 0.00 | 86 | 1020.7 |
| 20260507033334 | 54 | 211 | 4.0 | 7.0 | 0.00 | 0.00 | 0.00 | 84 | 1020.5 |
| 20260507030344 | 55 | 230 | 5.0 | 9.0 | 0.00 | 0.00 | 0.00 | 82 | 1020.4 |
| 20260507023327 | 55 | 175 | 3.0 | 8.0 | 0.00 | 0.00 | 0.00 | 80 | 1020.2 |
| 20260507020341 | 56 | 199 | 5.0 | 10.0 | 0.00 | 0.00 | 0.00 | 80 | 1020.0 |
| 20260507013325 | 56 | 249 | 1.0 | 7.0 | 0.00 | 0.00 | 0.00 | 80 | 1020.1 |
| 20260507010340 | 56 | 277 | 2.0 | 8.0 | 0.00 | 0.00 | 0.00 | 80 | 1020.2 |
| 20260507003342 | 56 | 213 | 4.0 | 9.0 | 0.00 | 0.00 | 0.00 | 80 | 1020.3 |
| 20260507000325 | 56 | 230 | 2.0 | 12.0 | 0.00 | 0.00 | 0.00 | 80 | 1020.2 |
| 20260506233335 | 56 | 257 | 3.0 | 9.0 | 0.00 | 0.00 | 0.00 | 79 | 1020.2 |
| 20260506230338 | 56 | 213 | 4.0 | 9.0 | 0.00 | 0.00 | 0.00 | 78 | 1020.3 |
| 20260506223355 | 56 | 236 | 4.0 | 10.0 | 0.00 | 0.00 | 0.00 | 79 | 1020.4 |
| 20260506220336 | 57 | 254 | 5.0 | 10.0 | 0.00 | 0.00 | 0.00 | 75 | 1020.5 |
| 20260506213326 | 56 | 244 | 6.0 | 12.0 | 0.00 | 0.00 | 0.00 | 77 | 1020.5 |
| 20260506210326 | 56 | 290 | 6.0 | 13.0 | 0.00 | 0.00 | 0.00 | 77 | 1020.6 |
| 20260506203353 | 56 | 237 | 6.0 | 15.0 | 0.00 | 0.00 | 0.00 | 78 | 1020.5 |
| 20260506200335 | 55 | 277 | 5.0 | 10.0 | 0.00 | 0.00 | 0.00 | 78 | 1020.5 |
| 20260506193349 | 55 | 262 | 7.0 | 11.0 | 0.00 | 0.00 | 0.00 | 81 | 1020.4 |
| 20260506190332 | 54 | 271 | 3.0 | 5.0 | 0.00 | 0.00 | 0.00 | 84 | 1020.3 |
| 20260506183348 | 53 | 268 | 3.0 | 7.0 | 0.00 | 0.00 | 0.00 | 88 | 1020.3 |
| 20260506180331 | 52 | 229 | 6.0 | 10.0 | 0.00 | 0.00 | 0.00 | 89 | 1020.3 |
| 20260506173343 | 52 | 240 | 5.0 | 9.0 | 0.00 | 0.00 | 0.00 | 92 | 1020.0 |
| 20260506170326 | 52 | 213 | 4.0 | 7.0 | 0.00 | 0.00 | 0.00 | 94 | 1020.2 |
| 20260506163329 | 52 | 262 | 2.0 | 8.0 | 0.00 | 0.00 | 0.00 | 94 | 1020.0 |
| 20260506160341 | 52 | 258 | 3.0 | 6.0 | 0.00 | 0.00 | 0.00 | 94 | 1019.3 |
| 20260506153341 | 51 | 230 | 3.0 | 8.0 | 0.00 | 0.00 | 0.00 | 94 | 1019.8 |
| 20260506150351 | 51 | 246 | 3.0 | 8.0 | 0.00 | 0.00 | 0.00 | 94 | 1019.4 |
| 20260506143335 | 51 | 194 | 3.0 | 7.0 | 0.00 | 0.00 | 0.00 | 94 | 1019.7 |
| 20260506140408 | 51 | 128 | 2.0 | 8.0 | 0.00 | 0.00 | 0.00 | 94 | 1019.2 |
| 20260506133332 | 51 | 173 | 3.0 | 7.0 | 0.00 | 0.00 | 0.00 | 93 | 1019.1 |
| 20260506130330 | 52 | 212 | 2.0 | 8.0 | 0.00 | 0.00 | 0.00 | 92 | 1018.9 |
| 20260506123339 | 52 | 260 | 4.0 | 7.0 | 0.00 | 0.00 | 0.00 | 92 | 1018.6 |
| 20260506120324 | 52 | 242 | 2.0 | 8.0 | 0.00 | 0.00 | 0.00 | 91 | 1018.5 |
| 20260506113336 | 52 | 216 | 3.0 | 11.0 | 0.00 | 0.00 | 0.00 | 90 | 1018.1 |
| 20260506110339 | 52 | 221 | 3.0 | 6.0 | 0.00 | 0.00 | 0.00 | 90 | 1018.1 |
| 20260506103352 | 52 | 242 | 3.0 | 8.0 | 0.00 | 0.00 | 0.00 | 90 | 1017.9 |
| 20260506100337 | 52 | 255 | 4.0 | 10.0 | 0.00 | 0.00 | 0.00 | 90 | 1017.6 |
| 20260506093342 | 52 | 289 | 5.0 | 11.0 | 0.00 | 0.00 | 0.00 | 89 | 1017.4 |
| 20260506090355 | 52 | 216 | 5.0 | 8.0 | 0.00 | 0.00 | 0.00 | 89 | 1017.2 |